Time,TemperatureF,DewpointF,PressureIn,WindDirection,WindDirectionDegrees,WindSpeedMPH,WindSpeedGustMPH,Humidity,HourlyPrecipIn,Conditions,Clouds,dailyrainin,SolarRadiationWatts/m^2,SoftwareType,DateUTC
2013-01-12 00:02:00,42.9,41.0,30.02,SW,227,0.0,1.0,94,0.00,,,0.00,0,weatherlink.com 1.10,2013-01-12 08:02:00,
2013-01-12 00:17:00,43.2,41.0,30.02,SW,229,0.0,0.0,93,0.00,,,0.00,0,weatherlink.com 1.10,2013-01-12 08:17:00,
2013-01-12 00:32:00,42.7,41.0,30.02,West,263,2.0,4.0,92,0.00,,,0.00,0,weatherlink.com 1.10,2013-01-12 08:32:00,
2013-01-12 00:47:00,42.4,40.0,30.02,West,269,0.0,1.0,92,0.00,,,0.00,0,weatherlink.com 1.10,2013-01-12 08:47:00,
2013-01-12 01:02:00,40.7,39.0,30.03,NE,51,0.0,2.0,92,0.00,,,0.00,0,weatherlink.com 1.10,2013-01-12 09:02:00,
2013-01-12 01:17:00,39.6,38.0,30.03,NE,51,0.0,0.0,93,0.01,,,0.01,0,weatherlink.com 1.10,2013-01-12 09:17:00,
2013-01-12 01:32:00,39.8,38.0,30.04,NE,51,0.0,1.0,94,0.01,,,0.01,0,weatherlink.com 1.10,2013-01-12 09:32:00,
2013-01-12 01:47:00,38.8,37.0,30.04,WNW,291,0.0,1.0,94,0.01,,,0.01,0,weatherlink.com 1.10,2013-01-12 09:47:00,
2013-01-12 02:02:00,38.0,37.0,30.05,West,267,2.0,2.0,94,0.01,,,0.01,0,weatherlink.com 1.10,2013-01-12 10:02:00,
2013-01-12 02:17:00,37.7,36.0,30.04,West,261,0.0,1.0,95,0.00,,,0.01,0,weatherlink.com 1.10,2013-01-12 10:17:00,
2013-01-12 02:48:00,37.2,36.0,30.05,West,261,0.0,0.0,95,0.00,,,0.01,0,weatherlink.com 1.10,2013-01-12 10:48:00,
2013-01-12 03:03:00,37.3,36.0,30.05,West,261,0.0,1.0,95,0.00,,,0.01,0,weatherlink.com 1.10,2013-01-12 11:03:00,
2013-01-12 03:18:00,37.0,36.0,30.05,West,261,0.0,0.0,95,0.00,,,0.01,0,weatherlink.com 1.10,2013-01-12 11:18:00,
2013-01-12 03:33:00,36.7,35.0,30.05,West,261,0.0,0.0,95,0.00,,,0.01,0,weatherlink.com 1.10,2013-01-12 11:33:00,
2013-01-12 03:48:00,36.3,35.0,30.06,West,261,0.0,0.0,94,0.00,,,0.01,0,weatherlink.com 1.10,2013-01-12 11:48:00,
2013-01-12 04:03:00,35.9,35.0,30.06,West,261,0.0,0.0,95,0.00,,,0.01,0,weatherlink.com 1.10,2013-01-12 12:03:00,
2013-01-12 04:18:00,35.5,34.0,30.06,ESE,120,0.0,0.0,95,0.00,,,0.01,0,weatherlink.com 1.10,2013-01-12 12:18:00,
2013-01-12 04:33:00,35.5,34.0,30.06,ESE,120,0.0,1.0,95,0.00,,,0.01,0,weatherlink.com 1.10,2013-01-12 12:33:00,
2013-01-12 04:48:00,35.1,34.0,30.07,ESE,120,0.0,1.0,95,0.00,,,0.01,0,weatherlink.com 1.10,2013-01-12 12:48:00,
2013-01-12 05:03:00,34.8,34.0,30.07,ESE,120,0.0,1.0,95,0.00,,,0.01,0,weatherlink.com 1.10,2013-01-12 13:03:00,
2013-01-12 05:18:00,34.6,33.0,30.07,ESE,120,0.0,1.0,95,0.00,,,0.01,0,weatherlink.com 1.10,2013-01-12 13:18:00,
2013-01-12 05:33:00,34.3,33.0,30.07,ESE,120,1.0,1.0,95,0.00,,,0.01,0,weatherlink.com 1.10,2013-01-12 13:33:00,
2013-01-12 05:48:00,33.8,33.0,30.07,ESE,120,0.0,1.0,95,0.00,,,0.01,0,weatherlink.com 1.10,2013-01-12 13:48:00,
2013-01-12 06:03:00,33.6,32.0,30.08,ESE,120,0.0,1.0,95,0.00,,,0.01,0,weatherlink.com 1.10,2013-01-12 14:03:00,
2013-01-12 06:18:00,33.4,32.0,30.08,ESE,109,0.0,2.0,95,0.00,,,0.01,0,weatherlink.com 1.10,2013-01-12 14:18:00,
2013-01-12 06:33:00,33.0,32.0,30.09,ESE,109,0.0,2.0,95,0.00,,,0.01,0,weatherlink.com 1.10,2013-01-12 14:33:00,
2013-01-12 06:48:00,33.0,32.0,30.09,ESE,109,0.0,1.0,95,0.00,,,0.01,0,weatherlink.com 1.10,2013-01-12 14:48:00,
2013-01-12 07:03:00,33.1,32.0,30.10,ESE,109,0.0,1.0,95,0.00,,,0.01,0,weatherlink.com 1.10,2013-01-12 15:03:00,
2013-01-12 07:18:00,33.5,32.0,30.11,ESE,109,0.0,1.0,95,0.00,,,0.01,5,weatherlink.com 1.10,2013-01-12 15:18:00,
2013-01-12 07:33:00,33.7,33.0,30.11,ESE,109,0.0,1.0,95,0.00,,,0.01,11,weatherlink.com 1.10,2013-01-12 15:33:00,
2013-01-12 07:48:00,34.1,33.0,30.12,ESE,109,0.0,1.0,95,0.00,,,0.01,19,weatherlink.com 1.10,2013-01-12 15:48:00,
2013-01-12 08:03:00,34.9,34.0,30.13,ESE,109,1.0,2.0,95,0.00,,,0.01,26,weatherlink.com 1.10,2013-01-12 16:03:00,
2013-01-12 08:18:00,35.5,34.0,30.13,ESE,109,1.0,2.0,94,0.00,,,0.01,30,weatherlink.com 1.10,2013-01-12 16:18:00,
2013-01-12 08:33:00,36.6,35.0,30.14,ESE,113,1.0,2.0,94,0.00,,,0.01,58,weatherlink.com 1.10,2013-01-12 16:33:00,
2013-01-12 08:48:00,37.7,36.0,30.14,ESE,121,1.0,2.0,92,0.00,,,0.01,86,weatherlink.com 1.10,2013-01-12 16:48:00,
2013-01-12 09:03:00,38.4,36.0,30.13,ESE,121,1.0,3.0,91,0.00,,,0.01,88,weatherlink.com 1.10,2013-01-12 17:03:00,
2013-01-12 09:18:00,39.0,37.0,30.13,SE,129,2.0,3.0,91,0.00,,,0.01,77,weatherlink.com 1.10,2013-01-12 17:18:00,
2013-01-12 09:33:00,39.9,37.0,30.13,SE,129,0.0,3.0,90,0.00,,,0.01,47,weatherlink.com 1.10,2013-01-12 17:33:00,
2013-01-12 09:48:00,40.8,38.0,30.13,SE,129,0.0,2.0,88,0.00,,,0.01,60,weatherlink.com 1.10,2013-01-12 17:48:00,
2013-01-12 10:04:00,41.7,38.0,30.13,SE,137,0.0,1.0,85,0.00,,,0.01,47,weatherlink.com 1.10,2013-01-12 18:04:00,
2013-01-12 10:19:00,42.4,37.0,30.12,SSE,153,0.0,2.0,81,0.00,,,0.01,355,weatherlink.com 1.10,2013-01-12 18:19:00,
2013-01-12 10:34:00,42.5,36.0,30.12,South,187,0.0,3.0,78,0.00,,,0.01,404,weatherlink.com 1.10,2013-01-12 18:34:00,
2013-01-12 10:49:00,43.2,36.0,30.11,West,267,1.0,4.0,75,0.00,,,0.01,431,weatherlink.com 1.10,2013-01-12 18:49:00,
2013-01-12 11:04:00,43.4,34.0,30.11,West,275,1.0,4.0,70,0.00,,,0.01,450,weatherlink.com 1.10,2013-01-12 19:04:00,
2013-01-12 11:19:00,44.0,35.0,30.10,WSW,242,1.0,5.0,71,0.00,,,0.01,464,weatherlink.com 1.10,2013-01-12 19:19:00,
2013-01-12 11:34:00,44.7,34.0,30.09,WSW,257,2.0,5.0,67,0.00,,,0.01,478,weatherlink.com 1.10,2013-01-12 19:34:00,
2013-01-12 11:49:00,45.4,35.0,30.08,WNW,294,3.0,6.0,67,0.00,,,0.01,490,weatherlink.com 1.10,2013-01-12 19:49:00,
2013-01-12 12:04:00,45.7,32.0,30.07,West,264,1.0,5.0,60,0.00,,,0.01,496,weatherlink.com 1.10,2013-01-12 20:04:00,
2013-01-12 12:19:00,46.3,32.0,30.07,WSW,247,2.0,4.0,57,0.00,,,0.01,497,weatherlink.com 1.10,2013-01-12 20:19:00,
2013-01-12 12:34:00,47.4,33.0,30.06,South,180,0.0,3.0,57,0.00,,,0.01,497,weatherlink.com 1.10,2013-01-12 20:34:00,
2013-01-12 12:49:00,47.9,32.0,30.05,SSW,209,1.0,5.0,54,0.00,,,0.01,490,weatherlink.com 1.10,2013-01-12 20:49:00,
2013-01-12 13:04:00,49.3,31.0,30.05,SSW,211,1.0,2.0,50,0.00,,,0.01,485,weatherlink.com 1.10,2013-01-12 21:04:00,
2013-01-12 13:19:00,48.2,29.0,30.05,SW,236,1.0,5.0,47,0.00,,,0.01,471,weatherlink.com 1.10,2013-01-12 21:19:00,
2013-01-12 13:34:00,47.9,28.0,30.04,NW,319,0.0,5.0,46,0.00,,,0.01,455,weatherlink.com 1.10,2013-01-12 21:34:00,
2013-01-12 13:49:00,49.2,29.0,30.04,SW,236,3.0,3.0,46,0.00,,,0.01,436,weatherlink.com 1.10,2013-01-12 21:49:00,
2013-01-12 14:04:00,49.1,26.0,30.04,ENE,74,1.0,3.0,41,0.00,,,0.01,415,weatherlink.com 1.10,2013-01-12 22:04:00,
2013-01-12 14:19:00,49.6,27.0,30.03,SSW,207,0.0,5.0,42,0.00,,,0.01,388,weatherlink.com 1.10,2013-01-12 22:19:00,
2013-01-12 14:34:00,49.4,26.0,30.03,SW,226,3.0,9.0,40,0.00,,,0.01,360,weatherlink.com 1.10,2013-01-12 22:34:00,
2013-01-12 14:49:00,49.4,25.0,30.03,WSW,244,2.0,7.0,38,0.00,,,0.01,327,weatherlink.com 1.10,2013-01-12 22:49:00,
2013-01-12 15:04:00,49.1,25.0,30.03,West,279,3.0,8.0,39,0.00,,,0.01,144,weatherlink.com 1.10,2013-01-12 23:04:00,
2013-01-12 15:19:00,49.4,26.0,30.02,WSW,244,6.0,8.0,40,0.00,,,0.01,58,weatherlink.com 1.10,2013-01-12 23:19:00,
2013-01-12 15:34:00,49.2,25.0,30.02,WNW,285,4.0,6.0,39,0.00,,,0.01,209,weatherlink.com 1.10,2013-01-12 23:34:00,
2013-01-12 15:49:00,49.4,26.0,30.01,WNW,302,2.0,8.0,40,0.00,,,0.01,97,weatherlink.com 1.10,2013-01-12 23:49:00,
2013-01-12 16:04:00,48.9,27.0,30.01,WSW,248,4.0,6.0,43,0.00,,,0.01,111,weatherlink.com 1.10,2013-01-13 00:04:00,
2013-01-12 16:19:00,48.9,27.0,30.01,WNW,287,1.0,6.0,43,0.00,,,0.01,70,weatherlink.com 1.10,2013-01-13 00:19:00,
2013-01-12 16:34:00,48.3,28.0,30.01,WNW,286,0.0,3.0,46,0.00,,,0.01,35,weatherlink.com 1.10,2013-01-13 00:34:00,
2013-01-12 16:49:00,47.7,28.0,30.01,WNW,293,0.0,4.0,47,0.00,,,0.01,14,weatherlink.com 1.10,2013-01-13 00:49:00,
2013-01-12 17:04:00,45.7,29.0,30.01,WNW,293,0.0,0.0,52,0.00,,,0.01,7,weatherlink.com 1.10,2013-01-13 01:04:00,
2013-01-12 17:19:00,45.1,30.0,30.01,WNW,293,0.0,0.0,56,0.00,,,0.01,0,weatherlink.com 1.10,2013-01-13 01:19:00,
2013-01-12 17:34:00,44.3,31.0,30.01,West,261,3.0,6.0,59,0.00,,,0.01,0,weatherlink.com 1.10,2013-01-13 01:34:00,
2013-01-12 17:49:00,44.0,32.0,30.02,WSW,254,4.0,10.0,62,0.00,,,0.01,0,weatherlink.com 1.10,2013-01-13 01:49:00,
2013-01-12 18:04:00,42.8,32.0,30.02,West,271,0.0,3.0,65,0.00,,,0.01,0,weatherlink.com 1.10,2013-01-13 02:04:00,
2013-01-12 18:19:00,41.5,32.0,30.02,West,271,0.0,1.0,68,0.00,,,0.01,0,weatherlink.com 1.10,2013-01-13 02:19:00,
2013-01-12 18:34:00,41.0,32.0,30.04,West,271,0.0,2.0,71,0.00,,,0.01,0,weatherlink.com 1.10,2013-01-13 02:34:00,
2013-01-12 18:49:00,40.5,31.0,30.03,West,271,0.0,1.0,68,0.00,,,0.01,0,weatherlink.com 1.10,2013-01-13 02:49:00,
2013-01-12 19:04:00,40.6,30.0,30.03,SSW,198,1.0,2.0,65,0.00,,,0.01,0,weatherlink.com 1.10,2013-01-13 03:04:00,
2013-01-12 19:19:00,40.9,30.0,30.03,SSW,198,0.0,1.0,66,0.00,,,0.01,0,weatherlink.com 1.10,2013-01-13 03:19:00,
2013-01-12 19:34:00,40.6,30.0,30.04,SSW,198,0.0,1.0,67,0.00,,,0.01,0,weatherlink.com 1.10,2013-01-13 03:34:00,
2013-01-12 19:49:00,40.8,31.0,30.04,SSW,198,0.0,1.0,68,0.00,,,0.01,0,weatherlink.com 1.10,2013-01-13 03:49:00,
2013-01-12 20:04:00,40.9,31.0,30.03,SSW,198,0.0,2.0,67,0.00,,,0.01,0,weatherlink.com 1.10,2013-01-13 04:04:00,
2013-01-12 20:19:00,40.2,31.0,30.02,SSW,198,0.0,2.0,69,0.00,,,0.01,0,weatherlink.com 1.10,2013-01-13 04:19:00,
2013-01-12 20:34:00,39.9,30.0,30.03,SSW,198,2.0,2.0,69,0.00,,,0.01,0,weatherlink.com 1.10,2013-01-13 04:34:00,
2013-01-12 20:49:00,39.7,30.0,30.03,SSW,198,1.0,2.0,69,0.00,,,0.01,0,weatherlink.com 1.10,2013-01-13 04:49:00,
2013-01-12 21:04:00,40.1,29.0,30.03,SSW,194,0.0,2.0,66,0.00,,,0.01,0,weatherlink.com 1.10,2013-01-13 05:04:00,
2013-01-12 21:19:00,39.9,29.0,30.03,SSW,194,0.0,2.0,65,0.00,,,0.01,0,weatherlink.com 1.10,2013-01-13 05:19:00,
2013-01-12 21:34:00,39.3,29.0,30.02,SSW,194,0.0,2.0,66,0.00,,,0.01,0,weatherlink.com 1.10,2013-01-13 05:34:00,
2013-01-12 21:49:00,38.9,29.0,30.03,SSW,193,0.0,0.0,68,0.00,,,0.01,0,weatherlink.com 1.10,2013-01-13 05:49:00,
2013-01-12 22:04:00,37.4,29.0,30.04,SSW,193,0.0,0.0,73,0.00,,,0.01,0,weatherlink.com 1.10,2013-01-13 06:04:00,
2013-01-12 22:19:00,36.9,29.0,30.04,SSW,193,1.0,1.0,73,0.00,,,0.01,0,weatherlink.com 1.10,2013-01-13 06:19:00,
2013-01-12 22:35:00,53.0,35.0,30.05,SSW,193,0.0,0.0,51,0.00,,,0.01,0,weatherlink.com 1.10,2013-01-13 06:35:00,
2013-01-12 22:50:00,66.0,35.0,30.05,East,99,0.0,1.0,32,0.00,,,0.01,0,weatherlink.com 1.10,2013-01-13 06:50:00,
2013-01-12 23:05:00,45.0,30.0,30.05,East,99,1.0,1.0,57,0.00,,,0.01,0,weatherlink.com 1.10,2013-01-13 07:05:00,
2013-01-12 23:20:00,38.8,28.0,30.05,East,99,0.0,1.0,66,0.00,,,0.01,0,weatherlink.com 1.10,2013-01-13 07:20:00,
2013-01-12 23:35:00,36.1,27.0,30.07,East,99,0.0,0.0,69,0.00,,,0.01,0,weatherlink.com 1.10,2013-01-13 07:35:00,
2013-01-12 23:50:00,35.4,28.0,30.06,East,99,0.0,0.0,73,0.00,,,0.01,0,weatherlink.com 1.10,2013-01-13 07:50:00,